Startpagina
METAR-TAF:

METAR-TAF

Vliegvelden :

Douglas, Wyoming, Verenigde Staten

breedte: 42-47-39N, lengte: 105-22-55W, hoogte: 1502 m

Actueel weer

Dit bericht is 50 minuten geleden gemaakt, om 03:53 UTC
Wind 10 kt uit het noordwesten
Temperatuur -6°C
Vochtigheid 93%
Druk 1011 hPa
Zicht: 0.8 km
sneeuw, onderkoelde mist

METAR: KDGW 090353Z AUTO 32010KT 1/2SM SN FZFG VV006 M06/M07 A2985 RMK AO2 SLP124 P0000 T10561072 $

Tijdstip: 21:43 (04:43 UTC)


TAF: ontbreekt

Waarnemingen en weersverwachtingen van meer dan 4000 vliegvelden (METAR en TAF).

De beschikbare stations zijn de gele en rode punten op de kaart.

Ga met uw muis naar het station om de naam te zien.

Klik dan om waarnemingen en weersverwachtingen te zien.

kaart wijzigen: klik op de groene knoppen met een zwart kruis om in te zoomen, op de groene knop met een streepje om uit te zoomen of op de groene pijlen voor aangrenzende kaarten.


METAR-TAF: